TimeEDT,TemperatureF,Dew PointF,Humidity,Sea Level PressureIn,VisibilityMPH,Wind Direction,Wind SpeedMPH,Gust SpeedMPH,PrecipitationIn,Events,Conditions,WindDirDegrees,DateUTC
12:18 AM,60.8,57.2,88,29.60,9.0,North,6.9,-,0.02,Rain,Light Rain,350,2013-06-14 04:18:00
12:53 AM,59.0,55.9,90,29.61,7.0,North,10.4,-,0.02,Rain,Light Rain,350,2013-06-14 04:53:00
1:13 AM,59.0,55.4,88,29.62,10.0,North,12.7,-,0.00,,Overcast,350,2013-06-14 05:13:00
1:39 AM,59.0,55.4,88,29.63,10.0,North,8.1,19.6,0.00,,Overcast,360,2013-06-14 05:39:00
1:53 AM,59.0,54.0,83,29.63,10.0,North,12.7,-,0.00,,Overcast,360,2013-06-14 05:53:00
2:22 AM,59.0,53.6,82,29.66,10.0,North,13.8,-,N/A,,Overcast,360,2013-06-14 06:22:00
2:53 AM,57.9,53.1,84,29.66,10.0,North,11.5,-,N/A,,Overcast,10,2013-06-14 06:53:00
3:53 AM,57.9,53.1,84,29.68,10.0,North,6.9,-,N/A,,Overcast,360,2013-06-14 07:53:00
4:53 AM,57.0,53.1,87,29.70,10.0,NNW,6.9,-,0.01,,Overcast,340,2013-06-14 08:53:00
5:53 AM,57.9,54.0,87,29.71,10.0,WNW,4.6,-,N/A,,Overcast,300,2013-06-14 09:53:00
6:25 AM,59.0,53.6,82,29.73,10.0,NNW,9.2,-,N/A,,Overcast,340,2013-06-14 10:25:00
6:53 AM,57.9,51.1,78,29.75,10.0,North,15.0,24.2,N/A,,Overcast,10,2013-06-14 10:53:00
7:21 AM,57.2,50.0,77,29.77,10.0,North,13.8,-,0.00,Rain,Light Rain,360,2013-06-14 11:21:00
7:53 AM,57.0,50.0,77,29.79,10.0,North,11.5,19.6,0.00,,Overcast,360,2013-06-14 11:53:00
8:53 AM,59.0,50.0,72,29.83,10.0,NNW,5.8,-,N/A,,Overcast,340,2013-06-14 12:53:00
9:53 AM,61.0,48.9,64,29.85,10.0,NNW,9.2,-,N/A,,Overcast,340,2013-06-14 13:53:00
10:53 AM,66.0,50.0,56,29.86,10.0,North,13.8,18.4,N/A,,Mostly Cloudy,10,2013-06-14 14:53:00
11:53 AM,66.9,52.0,59,29.87,10.0,NW,9.2,-,N/A,,Scattered Clouds,310,2013-06-14 15:53:00
12:53 PM,70.0,54.0,57,29.86,10.0,NW,9.2,-,N/A,,Mostly Cloudy,320,2013-06-14 16:53:00
1:53 PM,73.0,54.0,51,29.85,10.0,NW,15.0,23.0,N/A,,Mostly Cloudy,310,2013-06-14 17:53:00
2:53 PM,75.0,52.0,44,29.84,10.0,NW,13.8,20.7,N/A,,Partly Cloudy,320,2013-06-14 18:53:00
3:53 PM,75.9,51.1,42,29.83,10.0,North,11.5,19.6,N/A,,Scattered Clouds,350,2013-06-14 19:53:00
4:53 PM,75.0,51.1,43,29.83,10.0,NNW,12.7,21.9,N/A,,Partly Cloudy,330,2013-06-14 20:53:00
5:53 PM,75.9,53.1,45,29.85,10.0,NW,12.7,19.6,N/A,,Partly Cloudy,320,2013-06-14 21:53:00
6:53 PM,75.0,53.1,46,29.86,10.0,NNW,9.2,-,N/A,,Clear,330,2013-06-14 22:53:00
7:53 PM,71.1,54.0,55,29.88,10.0,NNW,8.1,-,N/A,,Partly Cloudy,340,2013-06-14 23:53:00
8:53 PM,66.9,55.0,66,29.90,10.0,NW,5.8,-,N/A,,Clear,310,2013-06-15 00:53:00
9:53 PM,66.0,54.0,65,29.93,10.0,WNW,4.6,-,N/A,,Clear,290,2013-06-15 01:53:00
10:53 PM,64.0,53.1,67,29.95,10.0,WNW,5.8,-,N/A,,Clear,300,2013-06-15 02:53:00
11:53 PM,62.1,54.0,75,29.96,10.0,West,5.8,-,N/A,,Clear,280,2013-06-15 03:53:00